Tracking 33747 objects as of 12-Apr-2026
HD Live streaming from Space Station
objects crossing your sky now

KUIPER-00262

Track KUIPER-00262 now!
10-day predictions
KUIPER-00262 is classified as:


NORAD ID: 67788
Int'l Code: 2026-030AA
Perigee: 457.9 km
Apogee: 460.6 km
Inclination: 51.9 °
Period: 93.6 minutes
Semi major axis: 6830 km
RCS: Unknown
Launch date: February 12, 2026
Source: France (FR)
Launch site: FRENCH GUIANA (FRGUI)
Your satellite tracking list
Your tracking list is empty




NASA's NSSDC Master Catalog

Two Line Element Set (TLE):
1 67788U 26030AA  26101.89893429  .00032268  00000-0  85722-3 0  9997
2 67788  51.8822  58.4285 0002011 105.1204 255.0006 15.37974271 10200
Source of the keplerian elements: AFSPC